[[{"header":{"parameterUnit":"m.s-1","parameterCategory":1,"la1":30.2991,"la2":30.254,"lo1":-89.0895,"lo2":-89.0444,"dy":0.0017,"dx":0.0017,"nx":28,"ny":28,"refTime":"2025-01-13T09:00:00:Z","depth":0,"parameterNumber":2,"parameterNumberName":"U-component_of_WINDS"},"data":[0,0,0,0,0,0,0,0,0,0,0,0,0,0,0,0,0,0,0,0,0,0,0,0,0,0,0,0,0,0,0,0,0,0,0,0,0,0,0,0,0,0,0,0,0,0,0,0,0,0,0,0,0,0,0,0,0,0,-1.9183,-1.9183,0,-1.9239,-1.924,-1.924,-1.9169,-1.9166,-1.9163,-1.9161,-1.9221,-1.9225,-1.9229,0,0,0,0,0,0,0,0,0,0,0,0,0,-1.9014,-1.9018,-1.9183,-1.9183,-1.9184,-1.9239,-1.924,-1.924,-1.9169,-1.9166,-1.9163,-1.916,-1.922,-1.9225,-1.923,0,0,0,0,0,0,0,0,0,0,0,0,0,-1.9081,-1.9019,-1.9183,-1.9155,-1.9153,-1.9239,-1.924,-1.9241,-1.917,-1.9166,-1.9162,-1.9158,-1.9218,-1.9224,-1.923,-1.9346,0,0,-1.9249,-1.9251,0,0,0,0,0,0,0,0,-1.9077,-1.9087,-1.9158,-1.9157,-1.9155,-1.9193,-1.9202,-1.9276,-1.9171,-1.9164,-1.9161,-1.9156,-1.9215,-1.9221,-1.924,-1.9349,-1.9352,-1.9249,-1.9253,-1.9256,-1.9257,0,0,0,0,0,0,0,-1.9073,-1.9084,-1.9205,-1.9159,-1.9157,-1.914,-1.9145,-1.9216,-1.9211,-1.9164,-1.9159,-1.9166,-1.9213,-1.9235,-1.9241,-1.9353,-1.9249,-1.9255,-1.9258,-1.9261,-1.9559,-1.9563,0,0,0,0,0,0,-1.9071,-1.9081,-1.9203,-1.9207,-1.9106,-1.9146,-1.9152,-1.9185,-1.921,-1.921,-1.917,-1.9163,-1.9226,-1.9234,-1.9243,-1.9381,-1.9256,-1.9261,-1.9265,-1.9554,-1.956,-1.9564,0,0,0,0,0,0,-1.9068,-1.9083,-1.9201,-1.9142,-1.9156,-1.9153,-1.9191,-1.9188,-1.9209,-1.9214,-1.9213,-1.9192,-1.9224,-1.9235,-1.9321,-1.9382,-1.9264,-1.927,-1.9549,-1.9556,-1.9562,-1.9658,0,0,0,0,0,0,-1.9063,-1.9082,-1.9126,-1.9144,-1.916,-1.9278,-1.9194,-1.9192,-1.9219,-1.9211,-1.9235,-1.9235,-1.9221,-1.9312,-1.9327,-1.9388,-1.9274,-1.9544,-1.9552,-1.956,-1.9649,-1.9667,-1.9682,0,0,0,0,0,-1.9057,-1.9152,-1.9129,-1.9144,-1.9215,-1.9282,-1.9291,-1.9272,-1.9225,-1.9269,-1.9272,-1.9235,-1.9372,-1.9322,-1.9338,-1.9402,-1.954,-1.955,-1.9559,-1.9642,-1.9664,-1.9681,0,0,0,0,0,0,-1.9143,-1.9154,-1.9128,-1.9231,-1.9256,-1.9269,-1.9325,-1.9295,-1.9335,-1.9325,-1.93,-1.9307,-1.9399,-1.9408,-1.9352,-1.9515,-1.9449,-1.9462,-1.9506,-1.9526,-1.9542,-1.9539,-1.9279,0,0,0,0,0,-1.9173,-1.9226,-1.9233,-1.9323,-1.9336,-1.9329,-1.9357,-1.934,-1.9365,-1.9376,-1.9385,-1.9411,-1.946,-1.9493,-1.9539,-1.9649,-1.9654,-1.9701,-1.9717,-1.9731,-1.9743,-1.9802,-1.9823,-1.9596,-1.9596,-1.9596,0,0,-1.9237,-1.925,-1.9285,-1.934,-1.9357,-1.9413,-1.9338,-1.9401,-1.9442,-1.9385,-1.9468,-1.9475,-1.9502,-1.9601,-1.9645,-1.9612,-1.9806,-1.9743,-1.9753,-1.9759,-1.9814,-1.9836,-1.9855,-1.9602,-1.9601,-1.96,0,0,-1.9383,-1.9397,-1.9474,-1.9492,-1.9518,-1.9512,-1.953,-1.9548,-1.9551,-1.9632,-1.959,-1.9639,-1.9724,-1.9745,-1.9767,-1.9918,-1.9886,-1.9933,-2.0019,-2.0077,-2.0095,-2.0111,-2.0166,-2.0186,-1.9945,-1.9946,-1.9946,0,-1.9461,-1.9542,-1.9517,-1.9583,-1.9608,-1.9557,-1.9635,-1.9653,-1.9694,-1.9713,-1.9674,-1.9779,-1.9794,-1.9897,-1.9934,-1.9953,-1.9973,-1.9932,-2.0094,-2.011,-2.0124,-2.0176,-2.0197,-1.9951,-1.9951,-1.995,-1.995,0,-1.9636,-1.9693,-1.9752,-1.9791,-1.9822,-1.9894,-1.9879,-1.9914,-1.9894,-1.9892,-1.9975,-1.999,-2.0038,-2.006,-2.0041,-2.0161,-2.0139,-2.0098,-2.0031,-2.0152,-2.0201,-2.022,-1.996,-1.9958,-1.9956,-1.9954,0,0,-1.9841,-1.9863,-1.9885,-1.9902,-1.9925,-1.997,-2.0037,-2.0083,-2.0114,-2.0142,-2.0199,-2.0271,-2.0232,-2.0257,-2.0239,-2.029,-2.0409,-2.0242,-2.0242,-2.0274,-2.0542,-2.0574,-2.0598,-2.0386,-2.0389,-2.0392,-2.054,0,-1.9988,-2.0105,-2.0084,-2.0199,-2.0251,-2.0202,-2.0261,-2.0282,-2.0281,-2.0326,-2.0324,-2.0376,-2.0321,-2.0335,-2.0383,-2.0385,-2.0463,-2.0373,-2.044,-2.0443,-2.0437,-2.0623,-2.0658,-2.0797,-2.0558,-2.0562,-2.0564,0,-2.0176,-2.021,-2.033,-2.0344,-2.0366,-2.0419,-2.0458,-2.0501,-2.0524,-2.0519,-2.0546,-2.0518,-2.0585,-2.0515,-2.0608,-2.0548,-2.0573,-2.0578,-2.0582,-2.059,-2.0513,-2.0637,-2.084,-2.0862,-2.0593,-2.0591,-2.0589,0,-2.0315,-2.0391,-2.0472,-2.0488,-2.0506,-2.0545,-2.0555,-2.0573,-2.0601,-2.0634,-2.0652,-2.0694,-2.0717,-2.075,-2.0734,-2.0684,-2.083,-2.0758,-2.0829,-2.083,-2.0865,-2.0864,-2.1077,-2.0878,-2.0877,-2.0877,-2.0877,0,-2.0483,-2.0559,-2.0535,-2.0586,-2.0668,-2.0642,-2.0725,-2.0728,-2.0744,-2.0795,-2.0754,-2.0802,-2.0777,-2.0823,-2.081,-2.089,-2.09,-2.0899,-2.0895,-2.0904,-2.0905,-2.0922,-2.0913,-2.0883,-2.0881,-2.088,-2.0879,0,-2.0655,-2.0641,-2.0727,-2.0736,-2.074,-2.0801,-2.0809,-2.0856,-2.085,-2.0914,-2.0928,-2.0919,-2.0971,-2.0957,-2.1014,-2.1006,-2.1106,-2.1089,-2.1099,-2.1096,-2.1168,-2.1162,-2.1402,-2.1432,-2.1212,-2.1214,-2.1216,0,-2.0764,-2.0821,-2.0835,-2.0865,-2.0878,-2.0927,-2.0955,-2.093,-2.096,-2.0989,-2.1033,-2.108,-2.1118,-2.1203,-2.1202,-2.1245,-2.123,-2.1311,-2.1236,-2.1243,-2.1233,-2.1231,-2.1236,-2.1327,-2.1329,-2.1331,-2.1333,0,-2.096,-2.095,-2.0991,-2.103,-2.1064,-2.1094,-2.112,-2.1147,-2.1123,-2.116,-2.1212,-2.124,-2.1297,-2.1345,-2.1384,-2.1393,-2.136,-2.1356,-2.1375,-2.1386,-2.139,-2.139,-2.1142,-2.1351,-2.1349,-2.1348,-2.1347,-2.1346,-2.1105,-2.1153,-2.117,-2.1217,-2.1233,-2.1258,-2.1302,-2.1301,-2.1344,-2.1388,-2.137,-2.1429,-2.1448,-2.1497,-2.1511,-2.1557,-2.1527,-2.1554,-2.1561,-2.1569,-2.1578,-2.138,-2.1564,-2.1563,-2.1563,-2.1562,-2.1562,0,-2.13,-2.1308,-2.1351,-2.1388,-2.1425,-2.1387,-2.1413,-2.1447,-2.15,-2.152,-2.1556,-2.1616,-2.1661,-2.1663,-2.1706,-2.1743,-2.1728,-2.1755,-2.1753,-2.1756,-2.1603,-2.1583,-2.1766,-2.1766,-2.1766,-2.1766,-2.1766,-2.1766,-2.1406,-2.1485,-2.1477,-2.1563,-2.157,-2.1628,-2.1646,-2.1669,-2.1684,-2.1752,-2.1789,-2.1789,-2.1802,-2.1845,-2.1885,-2.1884,-2.1903,-2.1936,-2.1929,-2.1787,-2.1767,-2.1748,-2.1729,-2.1939,-2.194,-2.2079,-2.208,-2.2081]},{"header":{"parameterUnit":"m.s-1","parameterCategory":1,"la1":30.2991,"la2":30.254,"lo1":-89.0895,"lo2":-89.0444,"dy":0.0017,"dx":0.0017,"nx":28,"ny":28,"refTime":"2025-01-13T09:00:00:Z","depth":0,"parameterNumber":3,"parameterNumberName":"V-component_of_WINDS"},"data":[0,0,0,0,0,0,0,0,0,0,0,0,0,0,0,0,0,0,0,0,0,0,0,0,0,0,0,0,0,0,0,0,0,0,0,0,0,0,0,0,0,0,0,0,0,0,0,0,0,0,0,0,0,0,0,0,0,0,-6.0618,-6.062,0,-6.0748,-6.075,-6.0751,-6.0675,-6.0672,-6.0668,-6.0665,-6.0795,-6.0802,-6.0809,0,0,0,0,0,0,0,0,0,0,0,0,0,-6.0301,-6.0307,-6.0618,-6.062,-6.0621,-6.0748,-6.075,-6.0751,-6.0676,-6.0672,-6.0667,-6.0663,-6.0793,-6.0801,-6.0809,0,0,0,0,0,0,0,0,0,0,0,0,0,-6.0435,-6.0309,-6.0618,-6.0599,-6.0599,-6.0748,-6.075,-6.0752,-6.0677,-6.0672,-6.0666,-6.0661,-6.079,-6.08,-6.081,-6.0984,0,0,-6.0842,-6.0846,0,0,0,0,0,0,0,0,-6.0428,-6.0447,-6.06,-6.0601,-6.06,-6.069,-6.0685,-6.083,-6.0678,-6.0647,-6.0665,-6.0658,-6.0764,-6.0776,-6.0813,-6.099,-6.0996,-6.0843,-6.0849,-6.0853,-6.0856,0,0,0,0,0,0,0,-6.0419,-6.0441,-6.0669,-6.0602,-6.0603,-6.0583,-6.0596,-6.0712,-6.0735,-6.065,-6.0644,-6.0661,-6.0763,-6.0803,-6.0815,-6.0998,-6.0842,-6.0852,-6.0858,-6.0862,-6.1322,-6.1327,0,0,0,0,0,0,-6.0411,-6.0434,-6.0665,-6.0673,-6.0499,-6.0593,-6.0608,-6.0667,-6.0734,-6.0738,-6.0665,-6.0657,-6.0788,-6.0803,-6.082,-6.1027,-6.0853,-6.0863,-6.0869,-6.1316,-6.1323,-6.1329,0,0,0,0,0,0,-6.0404,-6.0432,-6.066,-6.0552,-6.058,-6.0604,-6.0671,-6.0672,-6.0712,-6.0746,-6.0749,-6.0702,-6.0784,-6.0805,-6.0943,-6.103,-6.0868,-6.0877,-6.1309,-6.1318,-6.1326,-6.1443,0,0,0,0,0,0,-6.0396,-6.043,-6.0498,-6.0554,-6.0586,-6.0784,-6.0677,-6.0679,-6.073,-6.072,-6.0781,-6.0786,-6.0782,-6.0928,-6.0954,-6.1041,-6.0885,-6.1301,-6.1313,-6.1323,-6.1431,-6.1454,-6.1474,0,0,0,0,0,-6.0385,-6.0525,-6.0502,-6.053,-6.0671,-6.0789,-6.0807,-6.08,-6.0738,-6.0805,-6.0826,-6.0784,-6.1016,-6.0943,-6.0971,-6.1063,-6.1295,-6.1309,-6.1322,-6.1421,-6.145,-6.1474,0,0,0,0,0,0,-6.0479,-6.0533,-6.0507,-6.0671,-6.0726,-6.0776,-6.0861,-6.083,-6.0904,-6.0891,-6.0879,-6.0893,-6.1037,-6.1063,-6.0981,-6.1233,-6.1146,-6.1166,-6.1211,-6.1239,-6.126,-6.1251,-6.0894,0,0,0,0,0,-6.0518,-6.0611,-6.0652,-6.0792,-6.0821,-6.0837,-6.0888,-6.0877,-6.0934,-6.0956,-6.0988,-6.1043,-6.1128,-6.1185,-6.1265,-6.1434,-6.1445,-6.151,-6.1532,-6.155,-6.1567,-6.1657,-6.1686,-6.1374,-6.1374,-6.1373,0,0,-6.0601,-6.0642,-6.0701,-6.0812,-6.0854,-6.0948,-6.0857,-6.0961,-6.1031,-6.0972,-6.1105,-6.1129,-6.119,-6.1344,-6.1413,-6.137,-6.1655,-6.1567,-6.1581,-6.1589,-6.1674,-6.1703,-6.1729,-6.1383,-6.1381,-6.138,0,0,-6.0801,-6.0842,-6.0963,-6.1006,-6.107,-6.1078,-6.1107,-6.1162,-6.1176,-6.1309,-6.1267,-6.1348,-6.1496,-6.154,-6.1582,-6.1796,-6.176,-6.1823,-6.1936,-6.2024,-6.2048,-6.207,-6.2146,-6.2173,-6.184,-6.184,-6.184,0,-6.0897,-6.1039,-6.1028,-6.1136,-6.1185,-6.1136,-6.1257,-6.1299,-6.1386,-6.1421,-6.1371,-6.1554,-6.1591,-6.1755,-6.1807,-6.1842,-6.1874,-6.1816,-6.2046,-6.2067,-6.2087,-6.2159,-6.2188,-6.1847,-6.1846,-6.1846,-6.1845,0,-6.1152,-6.1251,-6.134,-6.1426,-6.1485,-6.1599,-6.1604,-6.1665,-6.1649,-6.1662,-6.1797,-6.184,-6.1927,-6.1965,-6.195,-6.2126,-6.2097,-6.2047,-6.1959,-6.2125,-6.2192,-6.222,-6.1857,-6.1855,-6.1853,-6.1851,0,0,-6.1417,-6.1494,-6.1527,-6.1564,-6.163,-6.1706,-6.1816,-6.1902,-6.1954,-6.2014,-6.2106,-6.2231,-6.2184,-6.2232,-6.2221,-6.2298,-6.2464,-6.2238,-6.2239,-6.2279,-6.2658,-6.2696,-6.2728,-6.2439,-6.2444,-6.2449,-6.2653,0,-6.1621,-6.1816,-6.1808,-6.1989,-6.2079,-6.2033,-6.2128,-6.2178,-6.2193,-6.227,-6.2285,-6.2374,-6.2307,-6.2335,-6.2409,-6.2428,-6.254,-6.2413,-6.2523,-6.2527,-6.251,-6.2763,-6.2804,-6.2995,-6.2679,-6.2684,-6.2687,0,-6.1886,-6.1956,-6.2146,-6.2196,-6.2234,-6.2321,-6.2398,-6.2473,-6.2527,-6.2532,-6.2585,-6.2561,-6.2671,-6.2579,-6.2729,-6.2643,-6.2687,-6.2703,-6.271,-6.272,-6.2618,-6.2781,-6.3056,-6.3085,-6.2729,-6.2725,-6.2722,0,-6.206,-6.2201,-6.2333,-6.2366,-6.2429,-6.249,-6.2519,-6.2568,-6.2619,-6.2686,-6.2719,-6.2798,-6.2841,-6.2901,-6.2898,-6.2832,-6.305,-6.2958,-6.3057,-6.3057,-6.3106,-6.3103,-6.3392,-6.3134,-6.3133,-6.3133,-6.3132,0,-6.2289,-6.2407,-6.2412,-6.2493,-6.2623,-6.2612,-6.274,-6.2762,-6.2806,-6.2889,-6.2853,-6.2931,-6.2923,-6.3001,-6.2999,-6.3123,-6.3143,-6.3149,-6.3148,-6.3153,-6.3152,-6.3182,-6.3169,-6.314,-6.3139,-6.3137,-6.3136,0,-6.2507,-6.2514,-6.2655,-6.2702,-6.2716,-6.281,-6.2849,-6.2925,-6.2935,-6.3041,-6.3065,-6.3082,-6.3172,-6.3175,-6.3278,-6.3277,-6.3428,-6.3411,-6.341,-6.3407,-6.3505,-6.3496,-6.3825,-6.3867,-6.3581,-6.3583,-6.3586,0,-6.2653,-6.2742,-6.2799,-6.2852,-6.2885,-6.2971,-6.3023,-6.3015,-6.307,-6.3138,-6.3205,-6.3292,-6.3362,-6.3508,-6.3528,-6.3606,-6.3591,-6.37,-6.3603,-6.3605,-6.3592,-6.3587,-6.3596,-6.372,-6.3723,-6.3726,-6.3728,0,-6.2911,-6.291,-6.2987,-6.3066,-6.3129,-6.319,-6.3247,-6.3292,-6.329,-6.3354,-6.3446,-6.35,-6.3605,-6.3691,-6.3767,-6.3794,-6.3761,-6.3758,-6.3785,-6.3792,-6.3788,-6.3791,-6.3463,-6.3751,-6.3749,-6.3747,-6.3746,-6.3745,-6.3098,-6.3174,-6.3226,-6.3312,-6.3354,-6.3407,-6.348,-6.3499,-6.3577,-6.3662,-6.3652,-6.3754,-6.3803,-6.3902,-6.3935,-6.4014,-6.3976,-6.4015,-6.4025,-6.4035,-6.4045,-6.3775,-6.4028,-6.4027,-6.4026,-6.4026,-6.4025,0,-6.3354,-6.3384,-6.3464,-6.3544,-6.3612,-6.3574,-6.3634,-6.3693,-6.3783,-6.3833,-6.3901,-6.4006,-6.4089,-6.4115,-6.4195,-6.4252,-6.4239,-6.4274,-6.4269,-6.4276,-6.4075,-6.4044,-6.4283,-6.4283,-6.4283,-6.4283,-6.4283,-6.4283,-6.3495,-6.3623,-6.3628,-6.3775,-6.3804,-6.3904,-6.3942,-6.399,-6.4029,-6.4148,-6.4217,-6.4233,-6.4272,-6.4354,-6.4428,-6.4433,-6.4464,-6.4505,-6.4504,-6.4316,-6.429,-6.4266,-6.4236,-6.4512,-6.4512,-6.4699,-6.47,-6.4702]}]]